Regional Weather Roundup
Issued by NWS

Home | Current Version | Previous Version | Text Only | Print | Product List | Glossary Off
Versions: 1 2 3 4 5 6 7 8 9 10 11 12 13 14 15 16 17 18 19 20 21 22 23 24 25 26 27 28 29 30 31 32 33 34 35 36 37 38 39 40 41 42 43 44 45 46 47 48 49 50

000
ASUS45 KABQ 100601
RWRNM
WEATHER ROUNDUP FOR NEW MEXICO
NATIONAL WEATHER SERVICE ALBUQUERQUE NM
1200 AM MDT THU JUL 10 2014

NOTE: "FAIR" MEANS FEW OR NO CLOUDS BELOW 12,000 FEET AGL WITH NO
       SIGNIFICANT WEATHER OR OBSTRUCTIONS TO VISION.

      THIS PRODUCT IS RELEASED AS TWO VERSIONS.  ONE VERSION NEAR
      THE TOP OF THE HOUR CONTAINING PRELIMINARY DATA FROM ALBUQUERQUE
      AND OTHER STATIONS.  A FINAL VERSION WITH ADDITIONAL DATA IS
      ISSUED ABOUT 10 MINUTES AFTER THE HOUR.

NMZ501-503-504-510>518-100700-
NORTHWEST PLATEAU/NORTHCENTRAL MOUNTAINS

CITY           SKY/WX    TMP DP  RH WIND       PRES   REMARKS
FARMINGTON     CLEAR     71  52  50 E10       30.18R
6HR MIN TEMP:  71; 6HR MAX TEMP:  91;

LOS ALAMOS     DRIZZLE   63  53  71 SW8       30.34S
SANTA FE       CLOUDY    67  51  56 SE8       30.26R
6HR MIN TEMP:  67; 6HR MAX TEMP:  83;

TAOS           PTCLDY    63  46  55 SW7       30.34R
ANGEL FIRE     FAIR      55  49  81 S3        30.41R

$$
NMZ402-403-502-505>509-100700-
WESTCENTRAL MOUNTAINS/SOUTHWEST MOUNTAINS

CITY           SKY/WX    TMP DP  RH WIND       PRES   REMARKS
GALLUP         CLOUDY    62  56  80 SW7       30.28S
6HR MIN TEMP:  61; 6HR MAX TEMP:  75; 6HR PCP:  0.07;

GRANTS         CLOUDY    62  50  65 N8        30.29S

$$
NMZ407-409-411-412-100700-
SOUTHERN DESERTS

CITY           SKY/WX    TMP DP  RH WIND       PRES   REMARKS
LORDSBURG      MOCLDY    75  59  57 W3        30.09R
DEMING         PTCLDY    75  55  49 W9        30.06
6HR MIN TEMP:  75; 6HR MAX TEMP:  92;

LAS CRUCES     CLOUDY    82  46  28 SE10      30.08R
HOLLOMAN AFB   PTCLDY    81  48  31 S12       30.04S
T OR C         MOCLDY    79  51  37 NW10      30.09S
6HR MIN TEMP:  79; 6HR MAX TEMP:  90;


$$
NMZ519>523-100700-
CENTRAL VALLEYS/CENTRAL HIGHLANDS

CITY           SKY/WX    TMP DP  RH WIND       PRES   REMARKS
ALBUQUERQUE    MOCLDY    73  54  51 N9        30.20R
6HR MIN TEMP:  73; 6HR MAX TEMP:  89; 6HR PCP:  0.22;

DOUBLE EAGLE   MOCLDY    69  53  56 N12       30.24R
CLINES CORNERS CLOUDY    65  48  54 NW7       30.31S
6HR MIN TEMP:  64; 6HR MAX TEMP:  77;

BELEN          FAIR      74  49  41 NW9       30.18S
6HR MIN TEMP:  74; 6HR MAX TEMP:  88;

SOCORRO        FAIR      78  49  35 N6        30.13S
6HR MIN TEMP:  78; 6HR MAX TEMP:  91;


$$
NMZ524>526-539-540-100700-
SOUTHCENTRAL MOUNTAINS

CITY           SKY/WX    TMP DP  RH WIND       PRES   REMARKS
RUIDOSO        NOT AVBL

$$
NMZ527>531-100700-
NORTHEAST HIGHLANDS/NORTHEAST PLAINS

CITY           SKY/WX    TMP DP  RH WIND       PRES   REMARKS
LAS VEGAS      CLOUDY    63  50  62 SW12      30.29F
6HR MIN TEMP:  62; 6HR MAX TEMP:  72;

RATON            N/A    N/A N/A N/A MISG      30.24R
CLAYTON        PTCLDY    69  51  52 W8        30.13S
6HR MIN TEMP:  68; 6HR MAX TEMP:  85;


$$
NMZ532>537-100700-
EASTCENTRAL PLAINS

CITY           SKY/WX    TMP DP  RH WIND       PRES   REMARKS
TUCUMCARI      CLOUDY    76  59  55 CALM      30.09R
6HR MIN TEMP:  74; 6HR MAX TEMP:  92;

CANNON AFB     MOCLDY    73  56  55 S8        30.12S
6HR MIN TEMP:  72; 6HR MAX TEMP:  88;

CLOVIS AIRPORT NOT AVBL

$$
NMZ028-029-538-100700-
SOUTHEAST PLAINS

CITY           SKY/WX    TMP DP  RH WIND       PRES   REMARKS
ROSWELL        MOCLDY    81  54  39 S10       30.07S
6HR MIN TEMP:  81; 6HR MAX TEMP:  95;

ARTESIA        MOCLDY    81  57  44 S17       30.07S
CARLSBAD       PTCLDY    82  57  42 S9        30.05
6HR MIN TEMP:  82; 6HR MAX TEMP:  96;

HOBBS          CLEAR     75  55  50 SE8       30.11S


$$



USA.gov is the U.S. government's official web portal to all federal, state and local government web resources and services.